Regional Weather Roundup
Issued by NWS

Home | Current Version | Previous Version | Text Only | Print | Product List | Glossary Off
Versions: 1 2 3 4 5 6 7 8 9 10 11 12 13 14 15 16 17 18 19 20 21 22 23 24 25 26 27 28 29 30 31 32 33 34 35 36 37 38 39 40 41 42 43 44 45 46 47 48 49 50

000
ASUS45 KABQ 190701
RWRNM
NEW MEXICO REGIONAL WEATHER ROUNDUP
NATIONAL WEATHER SERVICE ALBUQUERQUE NM
1200 AM MST THU JAN 19 2017

NOTE: "FAIR" MEANS FEW OR NO CLOUDS BELOW 12,000 FEET AGL WITH NO
       SIGNIFICANT WEATHER OR OBSTRUCTIONS TO VISION.

      THIS PRODUCT IS RELEASED AS TWO VERSIONS.  ONE VERSION NEAR
      THE TOP OF THE HOUR CONTAINING PRELIMINARY DATA FROM ALBUQUERQUE
      AND OTHER STATIONS.  A FINAL VERSION WITH ADDITIONAL DATA IS
      ISSUED ABOUT 10 MINUTES AFTER THE HOUR.

NMZ501-503-504-510>518-190800-
NORTHWEST PLATEAU/NORTHCENTRAL MOUNTAINS

CITY           SKY/WX    TMP DP  RH WIND       PRES   REMARKS
FARMINGTON     FAIR      26  24  92 NE5       29.97F WCI  20
LOS ALAMOS     FAIR      29  22  73 CALM      29.94F
SANTA FE       FAIR      32  23  69 N13       29.92F WCI  22
TAOS           CLOUDY    25  18  74 N6        29.95F WCI  18
ANGEL FIRE     FAIR      25  19  80 W17       29.91F WCI  11

$$
NMZ402-403-502-505>509-190800-
WESTCENTRAL MOUNTAINS/SOUTHWEST MOUNTAINS

CITY           SKY/WX    TMP DP  RH WIND       PRES   REMARKS
GALLUP         FAIR      25  23  92 CALM      30.01F
GRANTS         FAIR      27  24  89 CALM      30.01F
SILVER CITY    FAIR      30  29  95 N8        30.05F WCI  23

$$
NMZ407-409-411-412-190800-
SOUTHERN DESERTS

CITY           SKY/WX    TMP DP  RH WIND       PRES   REMARKS
DEMING         FAIR      40  35  83 W9        30.03F WCI  34
LAS CRUCES     FAIR      41  37  84 W12       30.03S
HOLLOMAN AFB   FAIR      41  37  83 S6        30.01F
ALAMOGORDO     FAIR      39  36  87 SE5       29.99F
T OR C         FAIR      40  30  67 NW13      29.97F WCI  32

$$
NMZ519>523-190800-
CENTRAL VALLEYS/CENTRAL HIGHLANDS

CITY           SKY/WX    TMP DP  RH WIND       PRES   REMARKS
ALBUQUERQUE    FAIR      38  29  70 N5        29.96F WCI  34
DOUBLE EAGLE   FAIR      31  28  86 NW9       29.97F WCI  23
MORIARTY ARPT  FAIR      35  24  66 W8        29.93S WCI  28
CLINES CORNERS FAIR      30  22  72 W33G43    29.84F WCI  14
BELEN          FAIR      32  28  86 NW6       29.97F WCI  26
SOCORRO        FAIR      34  30  83 CALM      29.96F

$$
NMZ524>526-539-540-190800-
SOUTHCENTRAL MOUNTAINS

CITY           SKY/WX    TMP DP  RH WIND       PRES   REMARKS
RUIDOSO        NOT AVBL

$$
NMZ527>531-190800-
NORTHEAST HIGHLANDS/NORTHEAST PLAINS

CITY           SKY/WX    TMP DP  RH WIND       PRES   REMARKS
LAS VEGAS      FAIR      26  15  63 N13       29.75F WCI  15
RATON          FAIR      22  19  89 E5        29.72F WCI  16
CLAYTON        FAIR      34  28  79 SW5       29.66F WCI  30

$$
NMZ532>537-190800-
EASTCENTRAL PLAINS

CITY           SKY/WX    TMP DP  RH WIND       PRES   REMARKS
TUCUMCARI      FAIR      37  30  75 SW10      29.71F WCI  30
CANNON AFB     FAIR      41  41 100 W20       29.78F
CLOVIS AIRPORT FAIR      39  34  81 SW14      29.78F WCI  31

$$
NMZ028-029-538-190800-
SOUTHEAST PLAINS

CITY           SKY/WX    TMP DP  RH WIND       PRES   REMARKS
ROSWELL        FAIR      36  31  82 SW8       29.86F WCI  30
ARTESIA        FAIR      46  41  81 SW14      29.88F
CARLSBAD       FAIR      49  37  63 SW15      29.89F


$$




USA.gov is the U.S. government's official web portal to all federal, state and local government web resources and services.